Location: Molveno
(46.1500°N, 10.9667°E)
Time: 17:07:34
(UTC+00:00)

Cosmos 2056 Rocket - Pass Details

Date: 05 July 2020
Orbit: 741 x 801 km, 74.0° (Epoch: 10 August)

Event Time Altitude Azimuth Distance (km) Brightness Sun altitude
Rises 22:58:55 0° 332° (NNW) 3,306 8.0 -21.0°
Reaches altitude 10° 23:01:24 10° 326° (NNW) 2,377 6.9 -21.0°
Maximum altitude 23:06:30 44° 256° (WSW) 1,104 4.2 -21.1°
Enters shadow 23:07:56 36° 218° (SW) 1,252 4.2 -21.1°
